Location: Bad Salzschlirf
(50.3750°N, 9.3000°E)
Time: 23:22:55
(UTC+01:00)

ISS - Visible Passes

Search period start: 23 November 2017 00:00
Search period end: 03 December 2017 00:00
Orbit: 402 x 407 km, 51.6° (Epoch: 24 November)

Date Brightness Start Highest point End Pass type
(mag) Time Alt. Az. Time Alt. Az. Time Alt. Az.
27 Nov -0.8 19:07:45 10° SSW 19:07:51 10° SSW 19:07:51 10° SSW visible
28 Nov -1.7 18:16:15 10° S 18:17:50 15° SSE 18:17:50 15° SSE visible
29 Nov -1.7 18:58:55 10° SW 19:00:25 23° SSW 19:00:25 23° SSW visible
30 Nov -2.6 18:06:54 10° SSW 18:09:47 28° SSE 18:10:15 27° SE visible
30 Nov -0.3 19:42:45 10° WSW 19:42:54 11° WSW 19:42:54 11° WSW visible
01 Dec -1.9 17:15:12 10° S 17:17:34 19° SE 17:19:57 10° E visible
01 Dec -2.6 18:50:23 10° WSW 18:52:40 41° SW 18:52:40 41° SW visible
02 Dec -3.4 17:58:06 10° SW 18:01:17 49° SSE 18:02:23 33° E visible
02 Dec -0.6 19:34:27 10° W 19:35:02 14° W 19:35:02 14° W visible
